TimeEST,TemperatureF,Dew PointF,Humidity,Sea Level PressureIn,VisibilityMPH,Wind Direction,Wind SpeedMPH,Gust SpeedMPH,PrecipitationIn,Events,Conditions,WindDirDegrees,DateUTC
12:15 AM,53.6,51.8,94,30.23,10.0,Calm,Calm,-,N/A,,Clear,0,2012-12-05 05:15:00
12:35 AM,53.6,51.8,94,30.23,10.0,Calm,Calm,-,N/A,,Clear,0,2012-12-05 05:35:00
12:55 AM,51.8,51.8,100,30.22,10.0,Calm,Calm,-,N/A,,Clear,0,2012-12-05 05:55:00
1:15 AM,51.8,51.8,100,30.21,10.0,Calm,Calm,-,N/A,,Clear,0,2012-12-05 06:15:00
1:35 AM,50.0,50.0,100,30.21,10.0,Calm,Calm,-,N/A,,Clear,0,2012-12-05 06:35:00
1:55 AM,50.0,50.0,100,30.21,10.0,Calm,Calm,-,N/A,,Clear,0,2012-12-05 06:55:00
2:15 AM,51.8,50.0,94,30.20,10.0,Calm,Calm,-,N/A,,Clear,0,2012-12-05 07:15:00
2:55 AM,51.8,51.8,100,30.19,10.0,Calm,Calm,-,N/A,,Clear,0,2012-12-05 07:55:00
3:15 AM,51.8,51.8,100,30.19,10.0,Calm,Calm,-,N/A,,Clear,0,2012-12-05 08:15:00
3:35 AM,51.8,50.0,94,30.19,10.0,Calm,Calm,-,N/A,,Clear,0,2012-12-05 08:35:00
3:55 AM,50.0,50.0,100,30.19,10.0,Calm,Calm,-,N/A,,Clear,0,2012-12-05 08:55:00
4:15 AM,51.8,50.0,94,30.18,10.0,Calm,Calm,-,N/A,,Clear,0,2012-12-05 09:15:00
4:35 AM,51.8,50.0,94,30.16,10.0,Calm,Calm,-,N/A,,Clear,0,2012-12-05 09:35:00
4:55 AM,50.0,50.0,100,30.16,10.0,Calm,Calm,-,N/A,,Clear,0,2012-12-05 09:55:00
5:15 AM,50.0,50.0,100,30.17,10.0,Calm,Calm,-,N/A,,Clear,0,2012-12-05 10:15:00
5:35 AM,50.0,50.0,100,30.16,10.0,Calm,Calm,-,N/A,,Clear,0,2012-12-05 10:35:00
5:55 AM,50.0,50.0,100,30.16,10.0,Calm,Calm,-,N/A,,Clear,0,2012-12-05 10:55:00
6:15 AM,50.0,50.0,100,30.17,10.0,Calm,Calm,-,N/A,,Clear,0,2012-12-05 11:15:00
6:35 AM,50.0,48.2,94,30.18,4.0,Calm,Calm,-,N/A,,Scattered Clouds,0,2012-12-05 11:35:00
6:55 AM,50.0,50.0,100,30.18,7.0,Calm,Calm,-,N/A,,Scattered Clouds,0,2012-12-05 11:55:00
7:15 AM,50.0,50.0,100,30.19,10.0,Calm,Calm,-,N/A,,Mostly Cloudy,0,2012-12-05 12:15:00
7:35 AM,50.0,50.0,100,30.19,10.0,Calm,Calm,-,N/A,,Overcast,0,2012-12-05 12:35:00
7:55 AM,51.8,51.8,100,30.20,10.0,Calm,Calm,-,N/A,,Overcast,0,2012-12-05 12:55:00
9:35 AM,64.4,55.4,73,30.21,10.0,ENE,4.6,-,N/A,,Mostly Cloudy,60,2012-12-05 14:35:00
9:55 AM,68.0,55.4,64,30.21,10.0,NNE,4.6,-,N/A,,Mostly Cloudy,30,2012-12-05 14:55:00
10:15 AM,69.8,57.2,64,30.20,10.0,NE,4.6,-,N/A,,Mostly Cloudy,50,2012-12-05 15:15:00
10:35 AM,69.8,57.2,64,30.20,10.0,NNE,4.6,-,N/A,,Overcast,20,2012-12-05 15:35:00
10:55 AM,71.6,59.0,64,30.20,10.0,Calm,Calm,-,N/A,,Overcast,0,2012-12-05 15:55:00
11:15 AM,73.4,59.0,61,30.19,10.0,ESE,3.5,-,N/A,,Overcast,110,2012-12-05 16:15:00
11:35 AM,73.4,59.0,61,30.18,10.0,North,5.8,-,N/A,,Mostly Cloudy,10,2012-12-05 16:35:00
11:55 AM,75.2,59.0,57,30.17,10.0,NE,5.8,-,N/A,,Overcast,40,2012-12-05 16:55:00
12:15 PM,75.2,59.0,57,30.16,10.0,NNE,5.8,-,N/A,,Scattered Clouds,20,2012-12-05 17:15:00
12:35 PM,77.0,53.6,44,30.14,10.0,NE,6.9,-,N/A,,Scattered Clouds,40,2012-12-05 17:35:00
12:55 PM,73.4,53.6,50,30.14,10.0,NNE,4.6,-,N/A,,Clear,30,2012-12-05 17:55:00
1:15 PM,77.0,53.6,44,30.12,10.0,NW,4.6,-,N/A,,Scattered Clouds,320,2012-12-05 18:15:00
1:35 PM,77.0,51.8,41,30.11,10.0,Calm,Calm,-,N/A,,Scattered Clouds,0,2012-12-05 18:35:00
1:55 PM,77.0,51.8,41,30.10,10.0,NNE,5.8,-,N/A,,Scattered Clouds,30,2012-12-05 18:55:00
2:15 PM,78.8,51.8,39,30.09,10.0,NE,5.8,-,N/A,,Mostly Cloudy,50,2012-12-05 19:15:00
2:35 PM,77.0,51.8,41,30.09,10.0,NE,5.8,-,N/A,,Overcast,40,2012-12-05 19:35:00
2:55 PM,77.0,51.8,41,30.08,10.0,NE,4.6,-,N/A,,Overcast,50,2012-12-05 19:55:00
3:15 PM,75.2,53.6,47,30.08,10.0,ENE,5.8,-,N/A,,Overcast,70,2012-12-05 20:15:00
3:35 PM,75.2,53.6,47,30.07,10.0,East,3.5,-,N/A,,Mostly Cloudy,80,2012-12-05 20:35:00
3:55 PM,77.0,55.4,47,30.06,10.0,ENE,4.6,-,N/A,,Mostly Cloudy,60,2012-12-05 20:55:00
4:15 PM,77.0,55.4,47,30.06,10.0,ENE,8.1,-,N/A,,Scattered Clouds,70,2012-12-05 21:15:00
4:35 PM,75.2,55.4,50,30.06,10.0,East,3.5,-,N/A,,Scattered Clouds,90,2012-12-05 21:35:00
4:55 PM,73.4,57.2,57,30.07,10.0,NE,5.8,-,N/A,,Clear,50,2012-12-05 21:55:00
5:15 PM,71.6,59.0,64,30.08,10.0,ENE,9.2,-,N/A,,Clear,60,2012-12-05 22:15:00
5:35 PM,69.8,59.0,68,30.08,10.0,East,10.4,-,N/A,,Clear,80,2012-12-05 22:35:00
5:55 PM,68.0,59.0,73,30.09,10.0,ENE,8.1,-,N/A,,Clear,60,2012-12-05 22:55:00
6:15 PM,68.0,59.0,73,30.09,10.0,ENE,5.8,9.2,N/A,,Clear,60,2012-12-05 23:15:00
6:35 PM,66.2,59.0,78,30.09,10.0,NE,6.9,-,N/A,,Clear,50,2012-12-05 23:35:00
6:55 PM,64.4,57.2,77,30.10,10.0,NE,5.8,-,N/A,,Clear,50,2012-12-05 23:55:00
7:15 PM,64.4,57.2,77,30.10,10.0,NNE,3.5,-,N/A,,Clear,30,2012-12-06 00:15:00
7:35 PM,64.4,59.0,83,30.10,10.0,ENE,3.5,-,N/A,,Mostly Cloudy,60,2012-12-06 00:35:00
7:55 PM,62.6,57.2,82,30.11,10.0,Calm,Calm,-,N/A,,Mostly Cloudy,0,2012-12-06 00:55:00
8:15 PM,62.6,59.0,88,30.11,10.0,Calm,Calm,-,N/A,,Mostly Cloudy,0,2012-12-06 01:15:00
8:35 PM,62.6,59.0,88,30.11,10.0,NE,3.5,-,N/A,,Scattered Clouds,50,2012-12-06 01:35:00
8:55 PM,60.8,57.2,88,30.11,10.0,Calm,Calm,-,N/A,,Mostly Cloudy,0,2012-12-06 01:55:00
9:15 PM,60.8,59.0,94,30.10,10.0,NNE,3.5,-,N/A,,Scattered Clouds,20,2012-12-06 02:15:00
9:35 PM,60.8,59.0,94,30.10,10.0,Calm,Calm,-,N/A,,Scattered Clouds,0,2012-12-06 02:35:00
9:55 PM,60.8,59.0,94,30.10,10.0,North,3.5,-,N/A,,Scattered Clouds,10,2012-12-06 02:55:00
10:15 PM,59.0,57.2,94,30.09,10.0,Calm,Calm,-,N/A,,Clear,0,2012-12-06 03:15:00
10:35 PM,60.8,59.0,94,30.09,10.0,Calm,Calm,-,N/A,,Mostly Cloudy,0,2012-12-06 03:35:00
10:55 PM,60.8,59.0,94,30.10,10.0,Calm,Calm,-,N/A,,Overcast,0,2012-12-06 03:55:00
11:15 PM,60.8,59.0,94,30.09,10.0,ENE,4.6,-,N/A,,Mostly Cloudy,60,2012-12-06 04:15:00
11:35 PM,60.8,60.8,100,30.09,10.0,Calm,Calm,-,N/A,,Mostly Cloudy,0,2012-12-06 04:35:00
11:55 PM,60.8,60.8,100,30.09,10.0,ENE,3.5,-,N/A,,Mostly Cloudy,60,2012-12-06 04:55:00